| time (UTC) | temp F | wind direction | speed MPH | gust MPH | rain 1hr in | rain 24hr in | rain mn in | humidity % | barometer mb |
| 20260504201842 | 82 | 210 | 9.0 | 22.0 | 0.00 | 0.00 | 0.00 | 54 | 1008.5 |
| 20260504201333 | 81 | 171 | 9.0 | 26.0 | 0.00 | 0.00 | 0.00 | 54 | 1008.5 |
| 20260504200822 | 81 | 196 | 9.0 | 26.0 | 0.00 | 0.00 | 0.00 | 56 | 1008.6 |
| 20260504200317 | 80 | 207 | 10.0 | 22.0 | 0.00 | 0.00 | 0.00 | 56 | 1008.9 |
| 20260504200313 | 81 | 172 | 9.0 | 19.0 | 0.00 | 0.00 | 0.00 | 56 | 1008.6 |
| 20260504195304 | 80 | 232 | 10.0 | 20.0 | 0.00 | 0.00 | 0.00 | 55 | 1009.0 |
| 20260504194752 | 80 | 168 | 11.0 | 20.0 | 0.00 | 0.00 | 0.00 | 56 | 1009.2 |
| 20260504194243 | 80 | 208 | 9.0 | 21.0 | 0.00 | 0.00 | 0.00 | 55 | 1009.3 |
| 20260504193732 | 79 | 153 | 8.0 | 21.0 | 0.00 | 0.00 | 0.00 | 55 | 1009.2 |
| 20260504193223 | 79 | 240 | 8.0 | 25.0 | 0.00 | 0.00 | 0.00 | 55 | 1009.4 |
| 20260504193213 | 80 | 220 | 9.0 | 25.0 | 0.00 | 0.00 | 0.00 | 54 | 1009.4 |
| 20260504192203 | 80 | 219 | 10.0 | 24.0 | 0.00 | 0.00 | 0.00 | 55 | 1009.5 |
| 20260504191652 | 80 | 233 | 9.0 | 24.0 | 0.00 | 0.00 | 0.00 | 54 | 1009.5 |
| 20260504191143 | 81 | 202 | 8.0 | 21.0 | 0.00 | 0.00 | 0.00 | 54 | 1009.6 |
| 20260504190633 | 81 | 249 | 9.0 | 21.0 | 0.00 | 0.00 | 0.00 | 56 | 1009.6 |
| 20260504190123 | 80 | 226 | 10.0 | 21.0 | 0.00 | 0.00 | 0.00 | 53 | 1009.8 |
| 20260504185604 | 80 | 180 | 8.0 | 21.0 | 0.00 | 0.00 | 0.00 | 55 | 1009.8 |
| 20260504185058 | 80 | 238 | 8.0 | 18.0 | 0.00 | 0.00 | 0.00 | 54 | 1010.0 |
| 20260504184552 | 80 | 203 | 9.0 | 16.0 | 0.00 | 0.00 | 0.00 | 54 | 1010.0 |
| 20260504184043 | 80 | 182 | 8.0 | 18.0 | 0.00 | 0.00 | 0.00 | 55 | 1010.2 |
| 20260504183536 | 80 | 150 | 7.0 | 21.0 | 0.00 | 0.00 | 0.00 | 55 | 1010.2 |
| 20260504183031 | 79 | 161 | 8.0 | 24.0 | 0.00 | 0.00 | 0.00 | 55 | 1010.2 |
| 20260504182520 | 79 | 281 | 9.0 | 24.0 | 0.00 | 0.00 | 0.00 | 55 | 1010.2 |
| 20260504182017 | 79 | 172 | 10.0 | 21.0 | 0.00 | 0.00 | 0.00 | 54 | 1010.4 |
| 20260504181509 | 78 | 262 | 10.0 | 25.0 | 0.00 | 0.00 | 0.00 | 56 | 1010.5 |
| 20260504181502 | 79 | 210 | 9.0 | 20.0 | 0.00 | 0.00 | 0.00 | 54 | 1010.6 |
| 20260504181107 | 78 | 187 | 11.0 | 25.0 | 0.00 | 0.00 | 0.00 | 55 | 1010.7 |
| 20260504175959 | 79 | 278 | 9.0 | 19.0 | 0.00 | 0.00 | 0.00 | 55 | 1010.5 |
| 20260504175453 | 79 | 248 | 10.0 | 21.0 | 0.00 | 0.00 | 0.00 | 55 | 1010.5 |
| 20260504174948 | 78 | 201 | 10.0 | 23.0 | 0.00 | 0.00 | 0.00 | 54 | 1010.8 |
| 20260504174440 | 79 | 134 | 9.0 | 23.0 | 0.00 | 0.00 | 0.00 | 53 | 1011.0 |
| 20260504173936 | 79 | 184 | 8.0 | 19.0 | 0.00 | 0.00 | 0.00 | 54 | 1011.0 |
| 20260504173428 | 78 | 213 | 9.0 | 21.0 | 0.00 | 0.00 | 0.00 | 54 | 1011.0 |
| 20260504172925 | 77 | 245 | 10.0 | 21.0 | 0.00 | 0.00 | 0.00 | 56 | 1011.1 |
| 20260504172416 | 78 | 231 | 10.0 | 19.0 | 0.00 | 0.00 | 0.00 | 53 | 1011.1 |
| 20260504171913 | 77 | 174 | 10.0 | 23.0 | 0.00 | 0.00 | 0.00 | 55 | 1011.2 |
| 20260504171406 | 77 | 230 | 11.0 | 23.0 | 0.00 | 0.00 | 0.00 | 55 | 1011.4 |
| 20260504170856 | 77 | 202 | 10.0 | 20.0 | 0.00 | 0.00 | 0.00 | 54 | 1011.4 |
| 20260504170355 | 77 | 207 | 10.0 | 22.0 | 0.00 | 0.00 | 0.00 | 54 | 1011.4 |
| 20260504151059 | 71 | 240 | 9.0 | 23.0 | 0.00 | 0.00 | 0.00 | 62 | 1012.5 |
| 20260504151050 | 71 | 172 | 9.0 | 23.0 | 0.00 | 0.00 | 0.00 | 63 | 1012.7 |
| 20260504140903 | 67 | 186 | 10.0 | 22.0 | 0.00 | 0.00 | 0.00 | 68 | 1012.9 |
| 20260504140353 | 66 | 216 | 10.0 | 17.0 | 0.00 | 0.00 | 0.00 | 68 | 1013.0 |
| 20260504130204 | 61 | 176 | 6.0 | 13.0 | 0.00 | 0.00 | 0.00 | 76 | 1013.1 |
| 20260504130154 | 61 | 202 | 7.0 | 13.0 | 0.00 | 0.00 | 0.00 | 76 | 1013.1 |
| 20260504110309 | 60 | 145 | 6.0 | 14.0 | 0.00 | 0.00 | 0.00 | 73 | 1012.5 |
| 20260504100151 | 60 | 209 | 7.0 | 15.0 | 0.00 | 0.00 | 0.00 | 71 | 1012.9 |
| 20260504081931 | 62 | 175 | 7.0 | 15.0 | 0.00 | 0.00 | 0.00 | 66 | 1013.5 |
| 20260504081926 | 62 | 178 | 7.0 | 23.0 | 0.00 | 0.00 | 0.00 | 65 | 1013.5 |
| 20260504080921 | 62 | 153 | 7.0 | 23.0 | 0.00 | 0.00 | 0.00 | 65 | 1013.5 |
| 20260504080419 | 62 | 181 | 7.0 | 17.0 | 0.00 | 0.00 | 0.00 | 64 | 1013.7 |
| 20260504070306 | 64 | 172 | 6.0 | 16.0 | 0.00 | 0.00 | 0.00 | 60 | 1014.0 |
| 20260504060113 | 65 | 211 | 6.0 | 14.0 | 0.00 | 0.00 | 0.00 | 57 | 1014.7 |
| 20260504050434 | 67 | 180 | 5.0 | 13.0 | 0.00 | 0.00 | 0.00 | 53 | 1015.4 |
| 20260504050424 | 67 | 163 | 5.0 | 13.0 | 0.00 | 0.00 | 0.00 | 53 | 1015.4 |
| 20260504045413 | 67 | 191 | 6.0 | 14.0 | 0.00 | 0.00 | 0.00 | 53 | 1015.5 |
| 20260504044903 | 67 | 174 | 6.0 | 14.0 | 0.00 | 0.00 | 0.00 | 53 | 1015.5 |
| 20260504044353 | 67 | 200 | 5.0 | 13.0 | 0.00 | 0.00 | 0.00 | 52 | 1015.5 |
| 20260504043846 | 67 | 205 | 4.0 | 13.0 | 0.00 | 0.00 | 0.00 | 52 | 1015.4 |
| 20260504043456 | 68 | 206 | 4.0 | 13.0 | 0.00 | 0.00 | 0.00 | 51 | 1015.6 |
| 20260504043444 | 68 | 182 | 4.0 | 10.0 | 0.00 | 0.00 | 0.00 | 52 | 1015.5 |
| 20260504041835 | 68 | 161 | 6.0 | 18.0 | 0.00 | 0.00 | 0.00 | 50 | 1015.7 |
| 20260504041824 | 68 | 156 | 7.0 | 18.0 | 0.00 | 0.00 | 0.00 | 50 | 1015.7 |
| 20260504040813 | 69 | 194 | 7.0 | 18.0 | 0.00 | 0.00 | 0.00 | 49 | 1015.6 |
| 20260504040804 | 69 | 201 | 6.0 | 18.0 | 0.00 | 0.00 | 0.00 | 49 | 1015.6 |
| 20260504035753 | 69 | 182 | 6.0 | 13.0 | 0.00 | 0.00 | 0.00 | 48 | 1015.6 |
| 20260504035243 | 69 | 180 | 7.0 | 19.0 | 0.00 | 0.00 | 0.00 | 48 | 1015.6 |
| 20260504034734 | 69 | 172 | 7.0 | 16.0 | 0.00 | 0.00 | 0.00 | 48 | 1015.6 |
| 20260504034223 | 69 | 237 | 7.0 | 16.0 | 0.00 | 0.00 | 0.00 | 48 | 1015.6 |
| 20260504033713 | 69 | 162 | 7.0 | 15.0 | 0.00 | 0.00 | 0.00 | 48 | 1015.5 |
| 20260504033704 | 69 | 197 | 7.0 | 15.0 | 0.00 | 0.00 | 0.00 | 48 | 1015.5 |
| 20260504032653 | 69 | 173 | 7.0 | 15.0 | 0.00 | 0.00 | 0.00 | 48 | 1015.5 |
| 20260504032143 | 70 | 159 | 7.0 | 15.0 | 0.00 | 0.00 | 0.00 | 48 | 1015.5 |
| 20260504031625 | 70 | 232 | 6.0 | 12.0 | 0.00 | 0.00 | 0.00 | 48 | 1015.5 |
| 20260504031115 | 70 | 174 | 5.0 | 14.0 | 0.00 | 0.00 | 0.00 | 47 | 1015.5 |
| 20260504030605 | 70 | 188 | 5.0 | 14.0 | 0.00 | 0.00 | 0.00 | 48 | 1015.4 |
| 20260504030055 | 70 | 203 | 5.0 | 13.0 | 0.00 | 0.00 | 0.00 | 48 | 1015.4 |
| 20260504025545 | 70 | 152 | 5.0 | 13.0 | 0.00 | 0.00 | 0.00 | 48 | 1015.4 |
| 20260504025036 | 71 | 202 | 5.0 | 14.0 | 0.00 | 0.00 | 0.00 | 48 | 1015.4 |
| 20260504024525 | 71 | 187 | 6.0 | 14.0 | 0.00 | 0.00 | 0.00 | 47 | 1015.3 |
| 20260504024017 | 71 | 146 | 6.0 | 14.0 | 0.00 | 0.00 | 0.00 | 47 | 1015.3 |
| 20260504023517 | 71 | 142 | 6.0 | 13.0 | 0.00 | 0.00 | 0.00 | 47 | 1015.3 |
| 20260504023057 | 71 | 192 | 6.0 | 12.0 | 0.00 | 0.00 | 0.00 | 45 | 1015.3 |
| 20260504023010 | 71 | 247 | 6.0 | 15.0 | 0.00 | 0.00 | 0.00 | 46 | 1015.3 |
| 20260504022951 | 72 | 207 | 6.0 | 13.0 | 0.00 | 0.00 | 0.00 | 45 | 1015.3 |
| 20260504021439 | 72 | 168 | 5.0 | 13.0 | 0.00 | 0.00 | 0.00 | 44 | 1015.3 |
| 20260504020929 | 72 | 168 | 5.0 | 12.0 | 0.00 | 0.00 | 0.00 | 43 | 1015.4 |
| 20260504020415 | 72 | 154 | 6.0 | 12.0 | 0.00 | 0.00 | 0.00 | 43 | 1015.3 |
| 20260504015858 | 72 | 202 | 6.0 | 13.0 | 0.00 | 0.00 | 0.00 | 42 | 1015.3 |
| 20260504015850 | 73 | 188 | 5.0 | 13.0 | 0.00 | 0.00 | 0.00 | 41 | 1015.3 |
| 20260504014844 | 73 | 157 | 5.0 | 12.0 | 0.00 | 0.00 | 0.00 | 41 | 1015.2 |
| 20260504014335 | 73 | 174 | 5.0 | 17.0 | 0.00 | 0.00 | 0.00 | 40 | 1015.2 |
| 20260504014329 | 73 | 178 | 7.0 | 17.0 | 0.00 | 0.00 | 0.00 | 39 | 1015.2 |
| 20260504013320 | 73 | 226 | 7.0 | 17.0 | 0.00 | 0.00 | 0.00 | 39 | 1015.0 |
| 20260504012812 | 74 | 199 | 7.0 | 17.0 | 0.00 | 0.00 | 0.00 | 39 | 1015.1 |
| 20260504012310 | 74 | 164 | 7.0 | 15.0 | 0.00 | 0.00 | 0.00 | 39 | 1015.1 |
| 20260504011807 | 74 | 158 | 7.0 | 15.0 | 0.00 | 0.00 | 0.00 | 38 | 1015.0 |
| 20260504011305 | 74 | 161 | 7.0 | 15.0 | 0.00 | 0.00 | 0.00 | 38 | 1014.9 |
| 20260504010800 | 74 | 146 | 7.0 | 17.0 | 0.00 | 0.00 | 0.00 | 38 | 1015.0 |
| 20260504010255 | 75 | 153 | 7.0 | 17.0 | 0.00 | 0.00 | 0.00 | 38 | 1015.0 |
| 20260504005750 | 75 | 191 | 6.0 | 15.0 | 0.00 | 0.00 | 0.00 | 37 | 1015.0 |
| 20260504005745 | 75 | 199 | 7.0 | 18.0 | 0.00 | 0.00 | 0.00 | 37 | 1015.0 |
| 20260504004738 | 75 | 188 | 5.0 | 18.0 | 0.00 | 0.00 | 0.00 | 36 | 1015.0 |
| 20260504004235 | 76 | 180 | 6.0 | 16.0 | 0.00 | 0.00 | 0.00 | 37 | 1015.0 |
| 20260504003733 | 76 | 203 | 7.0 | 16.0 | 0.00 | 0.00 | 0.00 | 36 | 1015.0 |
| 20260504003728 | 76 | 159 | 7.0 | 19.0 | 0.00 | 0.00 | 0.00 | 36 | 1015.0 |
| 20260504002721 | 76 | 157 | 6.0 | 19.0 | 0.00 | 0.00 | 0.00 | 35 | 1015.0 |
| 20260504002214 | 77 | 159 | 5.0 | 15.0 | 0.00 | 0.00 | 0.00 | 36 | 1015.1 |
| 20260504001712 | 77 | 198 | 7.0 | 19.0 | 0.00 | 0.00 | 0.00 | 35 | 1015.1 |
| 20260504001207 | 77 | 188 | 8.0 | 17.0 | 0.00 | 0.00 | 0.00 | 34 | 1015.2 |
| 20260504001202 | 77 | 172 | 8.0 | 19.0 | 0.00 | 0.00 | 0.00 | 34 | 1015.2 |
| 20260504000812 | 77 | 142 | 7.0 | 17.0 | 0.00 | 0.00 | 0.00 | 34 | 1015.2 |
| 20260503235652 | 78 | 132 | 7.0 | 16.0 | 0.00 | 0.00 | 0.00 | 34 | 1015.2 |
| 20260503235144 | 78 | 164 | 7.0 | 16.0 | 0.00 | 0.00 | 0.00 | 34 | 1015.2 |
| 20260503234638 | 78 | 215 | 6.0 | 16.0 | 0.00 | 0.00 | 0.00 | 34 | 1015.2 |
| 20260503234128 | 78 | 183 | 6.0 | 16.0 | 0.00 | 0.00 | 0.00 | 35 | 1015.2 |
| 20260503233618 | 78 | 131 | 9.0 | 17.0 | 0.00 | 0.00 | 0.00 | 34 | 1015.3 |
| 20260503233610 | 78 | 207 | 9.0 | 17.0 | 0.00 | 0.00 | 0.00 | 33 | 1015.4 |
| 20260503232603 | 78 | 204 | 8.0 | 20.0 | 0.00 | 0.00 | 0.00 | 34 | 1015.4 |
| 20260503232053 | 79 | 183 | 8.0 | 17.0 | 0.00 | 0.00 | 0.00 | 35 | 1015.5 |
| 20260503231548 | 79 | 193 | 8.0 | 17.0 | 0.00 | 0.00 | 0.00 | 34 | 1015.4 |
| 20260503231038 | 78 | 187 | 6.0 | 15.0 | 0.00 | 0.00 | 0.00 | 34 | 1015.5 |
| 20260503230528 | 78 | 197 | 5.0 | 15.0 | 0.00 | 0.00 | 0.00 | 34 | 1015.5 |
| 20260503230013 | 79 | 222 | 5.0 | 14.0 | 0.00 | 0.00 | 0.00 | 33 | 1015.5 |
| 20260503225504 | 79 | 207 | 5.0 | 13.0 | 0.00 | 0.00 | 0.00 | 34 | 1015.6 |
| 20260503224947 | 79 | 174 | 6.0 | 14.0 | 0.00 | 0.00 | 0.00 | 33 | 1015.6 |
| 20260503224437 | 79 | 152 | 7.0 | 15.0 | 0.00 | 0.00 | 0.00 | 34 | 1015.6 |
| 20260503223926 | 79 | 169 | 7.0 | 15.0 | 0.00 | 0.00 | 0.00 | 32 | 1015.6 |
| 20260503223416 | 80 | 216 | 7.0 | 13.0 | 0.00 | 0.00 | 0.00 | 33 | 1015.6 |
| 20260503222856 | 80 | 163 | 6.0 | 17.0 | 0.00 | 0.00 | 0.00 | 31 | 1015.6 |
| 20260503222348 | 80 | 170 | 4.0 | 13.0 | 0.00 | 0.00 | 0.00 | 32 | 1015.7 |
| 20260503221837 | 80 | 200 | 5.0 | 14.0 | 0.00 | 0.00 | 0.00 | 33 | 1015.8 |
| 20260503221817 | 80 | 262 | 5.0 | 16.0 | 0.00 | 0.00 | 0.00 | 34 | 1015.9 |
| 20260503221421 | 80 | 208 | 5.0 | 11.0 | 0.00 | 0.00 | 0.00 | 32 | 1015.8 |
| 20260503220758 | 80 | 205 | 7.0 | 17.0 | 0.00 | 0.00 | 0.00 | 32 | 1015.9 |
| 20260503215748 | 80 | 199 | 7.0 | 17.0 | 0.00 | 0.00 | 0.00 | 31 | 1016.1 |
| 20260503215238 | 82 | 195 | 6.0 | 12.0 | 0.00 | 0.00 | 0.00 | 33 | 1016.2 |
| 20260503214728 | 82 | 246 | 6.0 | 13.0 | 0.00 | 0.00 | 0.00 | 33 | 1016.2 |
| 20260503214218 | 82 | 253 | 7.0 | 19.0 | 0.00 | 0.00 | 0.00 | 31 | 1016.3 |
| 20260503213708 | 81 | 171 | 8.0 | 19.0 | 0.00 | 0.00 | 0.00 | 31 | 1016.4 |
| 20260503213158 | 82 | 176 | 7.0 | 18.0 | 0.00 | 0.00 | 0.00 | 31 | 1016.4 |
| 20260503212658 | 82 | 303 | 6.0 | 15.0 | 0.00 | 0.00 | 0.00 | 31 | 1016.5 |
| 20260503212149 | 83 | 175 | 6.0 | 15.0 | 0.00 | 0.00 | 0.00 | 31 | 1016.6 |
| 20260503211638 | 83 | 256 | 5.0 | 13.0 | 0.00 | 0.00 | 0.00 | 31 | 1016.8 |
| 20260503211129 | 82 | 267 | 5.0 | 13.0 | 0.00 | 0.00 | 0.00 | 32 | 1016.7 |
| 20260503210610 | 82 | 164 | 5.0 | 13.0 | 0.00 | 0.00 | 0.00 | 30 | 1016.9 |
| 20260503210052 | 82 | 209 | 5.0 | 12.0 | 0.00 | 0.00 | 0.00 | 32 | 1017.0 |
| 20260503205543 | 82 | 201 | 6.0 | 18.0 | 0.00 | 0.00 | 0.00 | 31 | 1017.1 |
| 20260503205032 | 83 | 181 | 7.0 | 18.0 | 0.00 | 0.00 | 0.00 | 32 | 1017.2 |
| 20260503204522 | 83 | 193 | 6.0 | 16.0 | 0.00 | 0.00 | 0.00 | 31 | 1017.2 |
| 20260503204012 | 83 | 151 | 5.0 | 14.0 | 0.00 | 0.00 | 0.00 | 30 | 1017.3 |
| 20260503203502 | 83 | 195 | 6.0 | 15.0 | 0.00 | 0.00 | 0.00 | 33 | 1017.5 |
| 20260503202952 | 83 | 156 | 6.0 | 15.0 | 0.00 | 0.00 | 0.00 | 30 | 1017.6 |
| 20260503202442 | 83 | 247 | 4.0 | 12.0 | 0.00 | 0.00 | 0.00 | 31 | 1017.6 |